Alexandria, LA

11:13 PM CST on February 24, 2017 (GMT -0600)
Alexandria International

Weather History for KAEX - December, 2002

Change the Weather History Date:

Saturday, December 28, 2002

  Actual Average Record
Temperature  
Mean Temperature 47 °F 49 °F  
Max Temperature 64 °F 59 °F 79 °F (1954)
Min Temperature 30 °F 40 °F 18 °F (1925)
Degree Days  
Heating Degree Days 18 16  
Month to date heating degree days 417  
Since 1 July heating degree days 742  
Moisture  
Dew Point 36 °F    
Average Humidity 79    
Maximum Humidity 100    
Minimum Humidity 35    
Precipitation  
Precipitation 0.00 in 0.15 in 2.73 in (1934)
Month to date precipitation 5.74  
Year to date precipitation 55.54  
Snow  
Snow 0.00 in - T in (1967)
Month to date snowfall  
Since 1 July snowfall  
Snow Depth -    
Sea Level Pressure  
Sea Level Pressure 30.35 in    
Wind  
Wind Speed 2 mph (SSW)    
Max Wind Speed 8 mph    
Max Gust Speed -    
Visibility 7 miles    
Events Fog    
T = Trace of Precipitation, MM = Missing Value Source: NWS Daily Summary

Daily Weather History Graph

Daily Weather History Graph

Search for Another Location

Airport or City:

Trip Planner

Search our weather history database for the weather conditions in past years. The results will help you decide how hot, cold, wet, or windy it might be!

Date:

Astronomy

Dec. 28, 2002 Rise Set
Actual Time 7:08 AM CST 5:15 PM CST
Civil Twilight 6:41 AM CST 5:42 PM CST
Nautical Twilight 6:10 AM CST 6:12 PM CST
Astronomical Twilight 5:41 AM CST 6:42 PM CST
Moon 1:29 AM CST (12/28) 1:17 PM CST (12/28)
Length of Visible Light 11h 01m
Length of Day
10h 07m
Waning Crescent, 31% of the Moon is Illuminated
Dec 28
Waning Crescent
Jan 2
New
Jan 10
First Quarter
Jan 18
Full
Jan 25
Last Quarter

Hourly Weather History & Observations

Time (CST) Temp. Windchill Dew Point Humidity Pressure Visibility Wind Dir Wind Speed Gust Speed Precip Events Conditions
12:53 AM 37.0 °F - 37.0 °F 100% 30.37 in 9.0 mi Calm Calm - N/A   Clear
1:53 AM 35.1 °F - 34.0 °F 96% 30.37 in 5.0 mi Calm Calm - N/A   Clear
2:53 AM 35.1 °F - 35.1 °F 100% 30.37 in 6.0 mi Calm Calm - N/A   Clear
3:42 AM 33.8 °F - 33.8 °F 100% 30.36 in 2.0 mi Calm Calm - N/A   Clear
3:53 AM 34.0 °F - 34.0 °F 100% 30.38 in 2.5 mi Calm Calm - N/A   Clear
4:13 AM 32.0 °F 28.7 °F 32.0 °F 100% 30.37 in 0.8 mi NNW 3.5 mph - N/A   Clear
4:24 AM 33.8 °F - 33.8 °F 100% 30.36 in 0.5 mi Calm Calm - N/A Fog Fog
4:53 AM 33.1 °F - 33.1 °F 100% 30.38 in 5.0 mi Calm Calm - N/A   Scattered Clouds
5:40 AM 32.0 °F - 32.0 °F 100% 30.37 in 1.8 mi Calm Calm - N/A   Clear
5:53 AM 32.0 °F - 32.0 °F 100% 30.38 in 2.5 mi Calm Calm - N/A   Clear
6:14 AM 32.0 °F - 32.0 °F 100% 30.36 in 9.0 mi Calm Calm - N/A   Clear
6:53 AM 30.9 °F - 30.9 °F 100% 30.39 in 2.0 mi Calm Calm - N/A   Clear
7:08 AM 30.2 °F - 30.2 °F 100% 30.37 in 7.0 mi Calm Calm - N/A   Clear
7:53 AM 33.1 °F - 32.0 °F 96% 30.40 in 8.0 mi Calm Calm - N/A   Clear
8:53 AM 39.9 °F - 37.9 °F 93% 30.41 in 8.0 mi Calm Calm - N/A   Clear
9:53 AM 48.0 °F - 42.1 °F 80% 30.44 in 10.0 mi Calm Calm - N/A   Clear
10:53 AM 55.9 °F - 43.0 °F 62% 30.42 in 10.0 mi SE 5.8 mph - N/A   Clear
11:53 AM 60.1 °F - 39.9 °F 47% 30.38 in 10.0 mi WSW 4.6 mph - N/A   Clear
12:53 PM 62.1 °F - 37.0 °F 39% 30.34 in 10.0 mi SSW 4.6 mph - N/A   Clear
1:53 PM 64.0 °F - 36.0 °F 35% 30.32 in 10.0 mi Variable 3.5 mph - N/A   Clear
2:53 PM 64.9 °F - 37.9 °F 37% 30.31 in 10.0 mi SW 8.1 mph - N/A   Clear
3:53 PM 64.9 °F - 39.0 °F 39% 30.31 in 10.0 mi South 4.6 mph - N/A   Clear
4:53 PM 60.1 °F - 42.1 °F 51% 30.30 in 10.0 mi South 5.8 mph - N/A   Clear
5:53 PM 55.0 °F - 39.9 °F 57% 30.29 in 10.0 mi South 4.6 mph - N/A   Clear
6:53 PM 54.0 °F - 37.0 °F 53% 30.30 in 10.0 mi South 5.8 mph - N/A   Clear
7:53 PM 50.0 °F - 41.0 °F 71% 30.30 in 10.0 mi South 8.1 mph - N/A   Clear
8:53 PM 51.1 °F - 39.9 °F 66% 30.30 in 10.0 mi South 6.9 mph - N/A   Clear
9:53 PM 46.9 °F - 39.0 °F 74% 30.30 in 10.0 mi South 5.8 mph - N/A   Clear
10:53 PM 44.1 °F 41.5 °F 39.0 °F 82% 30.28 in 10.0 mi South 4.6 mph - N/A   Clear
11:53 PM 46.9 °F - 39.9 °F 77% 30.27 in 10.0 mi South 6.9 mph - N/A   Clear